This is the latest recevied weather packets stored in our database for station/object YD2APR-13. If no packets are shown the sender has not sent any weather packets the latest 10 day(s).
| Time | Temp. | Humidity | Pressure | Rain* | Wind** | Luminosity | Snow |
|---|---|---|---|---|---|---|---|
| 1777541014 | 29.44° C | 69% | 1015.5 hPa | - | - | - | - |
| 1777540414 | 28.89° C | 71% | 1015.2 hPa | - | - | - | - |
| 1777539814 | 28.89° C | 71% | 1015.2 hPa | - | - | - | - |
| 1777539214 | 29.44° C | 71% | 1015.5 hPa | - | - | - | - |
| 1777538384 | 29.44° C | 71% | 1015.7 hPa | - | - | - | - |
| 1777535867 | 28.89° C | 69% | 1014.4 hPa | - | - | - | - |
| 1777535267 | 28.33° C | 69% | 1014.1 hPa | - | - | - | - |
| 1777534667 | 27.22° C | 70% | 1014.2 hPa | - | - | - | - |
| 1777534068 | 27.22° C | 70% | 1014.4 hPa | - | - | - | - |
| 1777533467 | 27.22° C | 72% | 1014.5 hPa | - | - | - | - |
| 1777532867 | 27.78° C | 71% | 1014.7 hPa | - | - | - | - |
| 1777532267 | 28.33° C | 70% | 1014.8 hPa | - | - | - | - |
| 1777531667 | 28.33° C | 70% | 1014.7 hPa | - | - | - | - |
| 1777531067 | 28.89° C | 75% | 1014.7 hPa | - | - | - | - |
| 1777530468 | 28.89° C | 75% | 1014.6 hPa | - | - | - | - |
| 1777529867 | 28.89° C | 75% | 1014.8 hPa | - | - | - | - |
| 1777529267 | 28.89° C | 75% | 1014.9 hPa | - | - | - | - |
| 1777528667 | 29.44° C | 74% | 1014.9 hPa | - | - | - | - |
| 1777528068 | 29.44° C | 75% | 1015 hPa | - | - | - | - |
| 1777527467 | 29.44° C | 75% | 1015 hPa | - | - | - | - |
| 1777526867 | 28.89° C | 76% | 1015.2 hPa | - | - | - | - |
| 1777526292 | 28.33° C | 76% | 1015.4 hPa | - | - | - | - |
| 1777525692 | 28.33° C | 76% | 1015.7 hPa | - | - | - | - |
| 1777525092 | 28.33° C | 76% | 1016 hPa | - | - | - | - |
| 1777524492 | 28.33° C | 76% | 1016.3 hPa | - | - | - | - |
* Rain since midnight (hover to see other rain measurements)
** Current wind speed in m/s (hover to see current wind gust speed)